Location: Ash Swamp
(41.5170°N, 74.6157°W)
Time: 17:12:37
(UTC+00:00)

Cosmos 44 Rocket - Pass Details

Date: 14 July 2020
Orbit: 651 x 739 km, 65.1° (Epoch: 05 August)

Event Time Altitude Azimuth Distance (km) Brightness Sun altitude
Exits shadow 04:13:02 47° 268° (W) 873 3.8 -25.8°
Maximum altitude 04:13:53 54° 306° (NW) 801 3.8 -25.8°
Drops below altitude 10° 04:18:32 10° 24° (NNE) 2,099 6.4 -26.0°
Sets 04:20:56 0° 29° (NNE) 3,029 7.3 -26.1°
